TimeEDT,TemperatureF,Dew PointF,Humidity,Sea Level PressureIn,VisibilityMPH,Wind Direction,Wind SpeedMPH,Gust SpeedMPH,PrecipitationIn,Events,Conditions,WindDirDegrees,DateUTC
12:54 AM,62.1,57.0,84,29.90,10.0,SSE,3.5,-,N/A,,Clear,150,2013-07-23 04:54:00
1:54 AM,60.1,55.0,83,29.89,10.0,SSE,6.9,-,N/A,,Clear,160,2013-07-23 05:54:00
2:54 AM,57.9,54.0,87,29.88,10.0,SSE,5.8,-,N/A,,Clear,150,2013-07-23 06:54:00
3:54 AM,57.9,53.1,84,29.87,10.0,SSE,5.8,-,N/A,,Clear,160,2013-07-23 07:54:00
4:54 AM,59.0,53.1,81,29.86,10.0,South,6.9,-,N/A,,Mostly Cloudy,170,2013-07-23 08:54:00
5:54 AM,59.0,53.1,81,29.85,10.0,SSE,9.2,-,N/A,,Scattered Clouds,160,2013-07-23 09:54:00
6:54 AM,61.0,53.1,75,29.85,10.0,South,5.8,-,N/A,,Overcast,170,2013-07-23 10:54:00
7:54 AM,62.1,53.1,72,29.84,10.0,South,6.9,-,N/A,,Mostly Cloudy,170,2013-07-23 11:54:00
8:54 AM,64.9,55.0,70,29.82,10.0,SSE,9.2,-,N/A,,Mostly Cloudy,150,2013-07-23 12:54:00
9:45 AM,64.4,59.0,83,29.80,10.0,South,9.2,-,N/A,,Mostly Cloudy,190,2013-07-23 13:45:00
9:54 AM,64.0,59.0,84,29.80,10.0,SSE,9.2,-,N/A,,Overcast,160,2013-07-23 13:54:00
10:54 AM,64.0,60.1,87,29.78,10.0,South,9.2,-,N/A,,Overcast,170,2013-07-23 14:54:00
11:54 AM,64.9,62.1,90,29.76,10.0,SSE,8.1,-,0.00,Rain,Light Rain,160,2013-07-23 15:54:00
12:54 PM,64.9,63.0,93,29.74,4.0,Calm,Calm,-,0.04,Rain,Light Rain,0,2013-07-23 16:54:00
1:54 PM,66.0,64.0,93,29.70,5.0,Calm,Calm,-,0.07,Rain,Light Rain,0,2013-07-23 17:54:00
2:07 PM,66.2,64.4,94,29.69,5.0,Calm,Calm,-,0.02,Rain,Rain,0,2013-07-23 18:07:00
2:41 PM,66.2,64.4,94,29.67,4.0,ENE,3.5,-,0.06,Rain,Light Rain,60,2013-07-23 18:41:00
2:54 PM,66.0,64.0,93,29.67,3.0,NE,4.6,-,0.07,Rain,Rain,50,2013-07-23 18:54:00
3:54 PM,66.0,64.9,96,29.64,7.0,East,11.5,-,0.06,Rain,Light Rain,100,2013-07-23 19:54:00
4:39 PM,64.4,62.6,94,29.61,4.0,East,9.2,-,0.06,Rain,Rain,90,2013-07-23 20:39:00
4:49 PM,64.4,62.6,94,29.61,4.0,ENE,5.8,-,0.07,Rain,Light Rain,70,2013-07-23 20:49:00
4:54 PM,64.0,62.1,93,29.62,5.0,ENE,6.9,-,0.07,Rain,Light Rain,70,2013-07-23 20:54:00
5:06 PM,64.4,62.6,94,29.61,6.0,Variable,4.6,-,0.01,Rain,Light Rain,0,2013-07-23 21:06:00
5:14 PM,64.4,62.6,94,29.60,4.0,East,6.9,-,0.02,Rain,Rain,100,2013-07-23 21:14:00
5:17 PM,64.4,62.6,94,29.60,2.5,East,6.9,-,0.03,Rain,Rain,100,2013-07-23 21:17:00
5:27 PM,62.6,62.6,100,29.60,1.5,East,6.9,-,0.08,Rain,Heavy Rain,100,2013-07-23 21:27:00
5:44 PM,62.6,62.6,100,29.60,2.0,East,6.9,-,0.13,Rain,Rain,100,2013-07-23 21:44:00
5:54 PM,63.0,61.0,93,29.60,1.8,ESE,9.2,17.3,0.16,Rain,Heavy Rain,110,2013-07-23 21:54:00
6:13 PM,62.6,62.6,100,29.58,2.0,East,9.2,-,0.08,Rain,Rain,100,2013-07-23 22:13:00
6:23 PM,62.6,60.8,94,29.59,3.0,ESE,9.2,19.6,0.11,Rain,Rain,110,2013-07-23 22:23:00
6:36 PM,62.6,60.8,94,29.58,5.0,East,8.1,-,0.13,Rain,Light Rain,90,2013-07-23 22:36:00
6:44 PM,62.6,60.8,94,29.58,6.0,East,5.8,-,0.13,Rain,Light Rain,100,2013-07-23 22:44:00
6:54 PM,62.1,61.0,96,29.59,10.0,East,3.5,-,0.13,Rain,Light Rain,90,2013-07-23 22:54:00
7:28 PM,62.6,60.8,94,29.54,8.0,East,12.7,-,0.00,Rain,Light Rain,90,2013-07-23 23:28:00
7:54 PM,62.1,60.1,93,29.55,10.0,East,4.6,-,0.00,,Overcast,90,2013-07-23 23:54:00
8:22 PM,62.6,59.0,88,29.57,10.0,Calm,Calm,-,N/A,,Overcast,0,2013-07-24 00:22:00
8:34 PM,62.6,60.8,94,29.57,10.0,Calm,Calm,-,N/A,,Overcast,0,2013-07-24 00:34:00
8:54 PM,62.1,60.1,93,29.58,10.0,Calm,Calm,-,N/A,,Overcast,0,2013-07-24 00:54:00
9:01 PM,62.6,60.8,94,29.57,10.0,NW,3.5,-,N/A,,Overcast,320,2013-07-24 01:01:00
9:54 PM,62.1,60.1,93,29.56,10.0,North,3.5,-,N/A,,Overcast,10,2013-07-24 01:54:00
10:54 PM,62.1,60.1,93,29.55,10.0,NNE,3.5,-,N/A,,Overcast,20,2013-07-24 02:54:00
11:37 PM,60.8,60.8,100,29.55,10.0,North,3.5,-,N/A,,Overcast,10,2013-07-24 03:37:00
11:54 PM,62.1,60.1,93,29.55,10.0,North,3.5,-,N/A,,Overcast,10,2013-07-24 03:54:00